This is the latest recevied weather packets stored in our database for station/object ac2ev. If no packets are shown the sender has not sent any weather packets the latest 10 day(s).
| Time | Temp. | Humidity | Pressure | Rain* | Wind** | Luminosity | Snow |
|---|---|---|---|---|---|---|---|
| 1778023291 | 8.33° C | 88% | 1008.2 hPa | 0.51 mm | - | - | - |
| 1778022990 | 8.89° C | 88% | 1008.2 hPa | 0.51 mm | - | - | - |
| 1778022691 | 8.89° C | 87% | 1008.5 hPa | 0.76 mm | - | - | - |
| 1778022391 | 8.89° C | 87% | 1008.2 hPa | 0.51 mm | - | - | - |
| 1778022091 | 8.89° C | 87% | 1008.6 hPa | 0.51 mm | - | - | - |
| 1778021790 | 8.89° C | 86% | 1008.1 hPa | 0.51 mm | - | - | - |
| 1778021491 | 8.89° C | 86% | 1007.8 hPa | 0.76 mm | - | - | - |
| 1778021190 | 8.89° C | 85% | 1007.7 hPa | 0.76 mm | - | - | - |
| 1778020891 | 8.89° C | 84% | 1007.7 hPa | 0.51 mm | - | - | - |
| 1778020590 | 9.44° C | 83% | 1007.5 hPa | 0.51 mm | - | - | - |
| 1778020291 | 9.44° C | 82% | 1007.7 hPa | 0.76 mm | - | - | - |
| 1778019991 | 9.44° C | 82% | 1007.9 hPa | 0.76 mm | - | - | - |
| 1778019691 | 10° C | 81% | 1007.8 hPa | 0.76 mm | - | - | - |
| 1778019391 | 10° C | 79% | 1007.6 hPa | 0.76 mm | - | - | - |
| 1778019092 | 10.56° C | 80% | 1007.5 hPa | 0.51 mm | - | - | - |
| 1778018790 | 10.56° C | 80% | 1007.6 hPa | 0.51 mm | - | - | - |
| 1778018491 | 10.56° C | 81% | 1007.5 hPa | 0.51 mm | - | - | - |
| 1778018190 | 11.11° C | 81% | 1007.5 hPa | 0.51 mm | - | - | - |
| 1778017883 | 11.11° C | 80% | 1007.3 hPa | 0.25 mm | - | - | - |
| 1778017577 | 11.11° C | 79% | 1007.1 hPa | 0.25 mm | - | - | - |
| 1778017272 | 11.67° C | 77% | 1007 hPa | 0.25 mm | - | - | - |
| 1778016972 | 12.22° C | 74% | 1006.9 hPa | 0.25 mm | - | - | - |
| 1778016671 | 12.78° C | 72% | 1006.5 hPa | 0 mm | - | - | - |
| 1778016371 | 13.89° C | 71% | 1005.8 hPa | 0 mm | - | - | - |
| 1778016071 | 13.89° C | 69% | 1005.7 hPa | 0 mm | - | - | - |
* Rain latest hour (hover to see other rain measurements)
** Current wind speed in m/s (hover to see current wind gust speed)